Date,TemperatureHighF,TemperatureAvgF,TemperatureLowF,DewpointHighF,DewpointAvgF,DewpointLowF,HumidityHigh,HumidityAvg,HumidityLow,PressureMaxIn,PressureMinIn,WindSpeedMaxMPH,WindSpeedAvgMPH,GustSpeedMaxMPH,PrecipitationSumIn
2013-3-1,31.6,26.6,22.5,24.6,20.9,15.8,93,79,64,30.21,30.05,15,8,15,0.00
2013-3-2,42.6,27.3,20.1,22.6,18.9,15.5,84,71,37,30.22,30.01,11,4,14,0.00
2013-3-3,40.3,30.8,21.9,26.1,22.0,17.3,85,70,54,30.01,29.65,21,8,21,0.00
2013-3-4,50.5,37.3,31.6,34.1,29.1,23.3,99,73,47,29.84,29.58,20,6,20,0.00
2013-3-5,33.4,28.7,24.4,32.7,22.1,17.4,98,76,68,30.22,29.83,27,11,27,0.00
2013-3-6,44.1,30.1,23.5,24.9,21.0,18.0,87,70,41,30.29,30.15,21,6,21,0.00
2013-3-7,46.2,32.1,20.1,30.2,24.4,18.5,93,75,50,30.18,30.02,21,8,21,0.00
2013-3-8,55.6,41.2,30.7,38.5,32.4,25.5,86,72,47,30.09,29.82,23,8,23,0.01
2013-3-9,49.3,44.7,40.8,49.0,43.5,37.2,99,96,82,29.82,29.47,18,7,18,0.26
2013-3-10,45.7,32.2,25.2,45.4,31.9,24.9,99,99,97,29.73,29.50,24,7,24,0.11
2013-3-11,33.8,26.8,23.2,24.9,22.9,20.1,99,86,64,29.86,29.69,12,2,12,0.01
2013-3-12,39.0,28.8,23.0,27.9,23.0,19.3,93,79,63,30.18,29.85,22,8,22,0.00
2013-3-13,43.7,30.1,16.7,25.6,20.8,15.0,94,70,44,30.32,30.14,12,4,12,0.00
2013-3-14,60.4,43.9,32.0,42.6,32.9,23.5,97,67,45,30.15,29.94,14,5,14,0.00
2013-3-15,67.8,46.9,31.3,46.4,39.7,31.0,99,80,42,29.96,29.58,17,4,17,0.00
2013-3-16,37.8,33.7,27.7,37.5,29.5,22.9,99,85,72,30.05,29.70,24,10,24,0.00
2013-3-17,45.0,32.9,23.5,34.1,25.8,20.4,99,76,53,30.03,29.67,25,10,25,0.00
2013-3-18,40.5,33.8,24.3,34.3,25.7,16.1,99,74,44,29.90,29.62,21,6,21,0.15
2013-3-19,50.0,32.5,18.3,25.8,18.4,10.5,89,60,27,30.14,29.90,18,5,18,0.00
2013-3-20,35.1,24.9,15.3,21.5,10.3,4.3,82,56,28,30.24,29.98,24,8,24,0.00
2013-3-21,34.9,25.8,16.2,18.5,13.7,10.3,85,62,37,29.98,29.78,15,6,15,0.00
2013-3-22,35.8,29.6,23.7,22.8,18.8,15.2,82,65,47,29.90,29.83,13,5,13,0.00
2013-3-23,38.5,31.6,27.3,29.4,25.7,20.4,99,80,53,29.97,29.85,18,7,18,0.00
2013-3-24,32.0,27.3,23.7,27.6,24.5,21.2,99,89,72,29.89,29.82,24,10,24,0.01
2013-3-25,35.1,28.3,24.1,27.1,24.2,21.0,99,85,60,30.16,29.88,25,9,25,0.01
2013-3-26,43.5,31.3,17.8,25.3,22.0,17.1,99,70,43,30.22,30.11,12,4,12,0.00
2013-3-27,52.2,37.0,23.0,33.9,27.1,21.0,93,69,40,30.16,30.07,17,5,17,0.00
2013-3-28,64.6,45.4,27.3,35.8,31.4,25.9,96,63,27,30.13,30.03,14,4,14,0.00
2013-3-29,69.8,52.2,32.2,40.4,32.3,22.0,98,55,17,30.11,29.94,16,5,16,0.00
2013-3-30,70.0,55.2,45.9,54.7,44.0,33.5,99,68,42,29.98,29.74,21,5,21,0.17
2013-3-31,60.3,48.7,32.9,41.4,33.1,17.7,99,62,20,29.99,29.80,27,8,27,0.04